Theta_e
351 351 351 350 349 349 350 350 350 350 350 350 346 343 344 346 349 351 351 351 350 350 350 350 350 352 352 350 349 346 344 341 342 347 352 352 352 352 352 352 352 352
350 351 350 350 350 350 350 350 350 350 351 351 347 343 343 345 348 351 352 351 350 349 349 349 350 351 352 351 349 347 345 341 341 346 352 352 351 351 351 351 352 352
350 351 350 350 350 350 350 351 350 351 351 352 349 345 344 345 347 351 352 352 351 350 349 348 348 350 351 351 349 347 345 342 341 345 351 352 351 351 351 351 351 351
351 351 351 350 350 350 350 351 350 351 351 352 351 347 344 344 347 350 351 351 352 351 350 348 348 349 351 352 351 348 345 343 343 346 350 351 351 350 350 350 351 350
351 351 351 350 350 350 350 351 351 351 352 352 352 350 346 345 345 348 349 350 351 350 349 348 348 349 350 352 352 351 348 346 346 348 349 350 350 350 350 350 350 349
351 351 351 350 350 350 350 351 351 351 352 353 353 352 349 346 345 346 348 349 350 349 349 348 348 349 350 351 352 352 351 349 348 349 349 350 350 350 351 350 349 349
351 351 351 350 350 350 350 351 351 351 352 353 353 353 351 349 346 345 346 349 351 350 350 349 349 349 350 351 351 352 352 351 350 350 350 351 351 351 350 349 349 348
352 352 352 351 351 350 350 351 351 352 352 353 354 353 352 351 348 345 345 349 351 351 350 349 349 350 350 350 351 351 351 351 351 352 352 352 351 351 350 349 349 349
352 351 351 351 351 350 349 349 351 351 352 353 354 353 352 351 347 344 344 348 351 351 349 349 350 350 350 351 351 351 350 350 351 352 352 352 352 350 350 350 350 351
352 351 351 351 350 350 350 349 350 351 351 353 354 353 352 351 347 343 343 348 350 350 349 349 350 350 350 351 351 351 350 350 350 351 352 352 351 351 351 351 352 352
351 351 352 352 351 351 351 352 352 351 352 352 354 354 352 350 348 344 344 347 350 350 350 349 350 350 351 351 351 351 351 351 351 351 350 350 351 351 351 351 351 351
351 352 352 352 350 350 351 352 353 352 351 352 354 354 353 351 348 345 344 347 349 349 350 350 350 350 350 350 350 351 351 351 351 351 350 351 351 352 351 350 351 352
353 353 352 351 349 349 350 352 353 351 349 350 352 354 354 352 349 348 346 345 347 348 349 350 351 351 350 350 350 351 351 351 351 351 350 350 351 351 350 350 351 350
354 353 352 350 349 349 350 352 352 350 348 348 351 353 354 354 352 351 350 349 348 348 347 348 351 351 350 349 349 350 351 351 351 351 350 350 351 351 350 350 350 348
352 352 352 350 349 349 352 353 352 350 349 347 349 349 350 353 354 354 353 352 352 351 349 349 351 351 350 349 349 350 351 351 351 351 351 351 350 349 349 348 348 347
350 351 352 351 350 350 352 354 352 350 348 346 347 347 345 349 353 355 354 353 352 351 350 350 351 351 351 349 348 349 350 350 350 351 351 351 349 348 347 347 347 347
349 350 353 353 352 351 352 353 351 349 346 344 345 346 345 347 350 353 355 354 353 351 350 349 350 350 351 349 348 349 350 351 351 351 350 349 349 349 349 348 348 347
349 351 354 355 353 351 351 350 350 350 347 344 343 344 346 348 349 351 353 352 352 351 349 348 348 349 350 350 349 349 350 351 351 350 349 348 348 349 349 348 346 345
351 352 353 352 351 350 350 349 350 351 347 342 343 346 347 349 350 352 353 351 350 349 347 347 349 349 350 350 350 350 351 351 350 349 348 347 347 347 347 346 345 344
352 352 351 349 349 350 350 350 351 351 349 346 347 349 350 351 353 353 353 352 351 349 347 347 349 351 352 351 351 352 351 351 350 349 348 347 347 346 345 345 344 343
350 351 351 349 349 350 350 350 351 352 353 353 353 353 354 354 353 352 352 352 352 350 348 348 349 350 352 352 352 352 351 350 350 349 349 347 346 346 344 343 342 339
350 351 350 350 351 350 350 351 352 353 354 355 355 354 354 353 352 352 352 352 352 351 350 350 349 350 350 351 352 351 350 349 349 349 348 346 345 345 343 341 339 337
350 349 349 350 351 350 350 352 354 353 352 350 350 349 348 349 351 351 351 351 350 350 350 350 351 351 351 351 351 351 349 349 349 348 346 345 344 342 340 339 338 338
349 347 345 346 348 350 351 352 352 349 346 344 345 345 346 349 349 349 350 351 351 350 350 350 351 352 352 351 351 350 349 349 348 347 345 343 341 339 338 338 338 338
350 348 346 346 347 350 351 351 348 345 343 343 344 346 349 350 349 349 350 350 350 350 350 350 351 351 351 351 350 349 348 348 348 346 344 341 338 337 338 339 339 338
351 350 348 346 347 350 351 349 346 343 343 345 345 347 349 349 348 348 350 350 350 350 349 349 351 351 351 351 349 348 347 347 346 344 342 339 338 338 339 339 339 338
Wind_Speed
35 35 34 33 32 32 30 28 26 24 23 22 23 24 24 23 21 19 18 17 16 15 15 14 13 13 13 14 15 16 16 16 16 18 18 16 13 11 11 11 11 12
34 35 35 34 32 31 31 30 28 25 24 23 22 23 25 24 22 20 19 19 18 17 16 15 14 14 14 14 15 16 17 16 16 18 19 16 14 12 11 11 11 12
35 35 37 36 34 31 29 29 29 28 25 23 22 23 24 26 24 22 22 22 22 21 19 17 15 15 15 14 15 15 16 16 16 17 19 17 15 14 12 12 12 13
36 36 35 35 35 33 31 30 29 29 26 24 22 22 23 25 25 25 24 24 24 24 23 19 16 16 15 15 14 14 14 14 15 17 18 18 17 16 13 13 15 16
37 37 35 33 33 33 34 34 31 29 27 25 22 22 23 24 25 26 26 25 25 24 22 19 16 16 16 15 14 14 13 13 14 16 17 17 17 16 14 15 17 18
38 39 37 34 33 32 32 34 33 29 27 25 22 22 23 24 25 26 26 24 23 21 20 18 16 15 15 15 15 14 14 13 14 15 16 16 15 15 15 16 18 18
38 39 39 37 35 33 31 33 34 32 28 25 23 22 23 24 26 26 25 24 22 21 19 19 17 16 15 15 15 15 14 14 14 15 16 15 15 15 15 16 17 17
39 40 40 37 33 32 32 32 34 35 31 26 24 23 23 25 26 26 26 25 24 21 20 20 19 17 17 17 17 16 16 15 15 16 16 15 15 14 14 15 16 17
40 39 38 37 33 30 30 30 31 33 32 28 25 24 24 25 26 27 27 26 25 23 22 22 21 20 19 19 19 18 18 17 17 17 16 15 15 13 13 14 15 16
40 37 36 38 37 32 30 30 29 30 30 28 26 24 24 25 26 27 28 27 26 24 24 24 23 22 21 21 20 20 19 19 19 19 17 17 16 14 14 15 16 16
40 37 34 34 35 33 31 30 28 28 27 26 26 26 25 26 27 28 29 29 28 26 26 26 24 23 23 22 21 20 20 21 22 20 17 17 16 16 17 18 18 18
42 40 34 30 31 31 30 30 29 27 25 25 26 26 26 26 27 28 30 31 30 28 28 28 26 25 25 24 22 22 22 23 22 19 18 18 18 17 18 19 20 19
39 38 32 29 29 28 28 31 31 27 25 25 25 25 26 26 27 27 28 30 30 30 30 30 28 27 27 26 24 24 23 23 22 20 19 19 19 19 19 19 19 20
34 33 30 27 27 27 28 31 31 28 25 24 25 24 25 26 26 26 26 26 28 29 30 30 28 27 28 27 25 25 24 23 23 22 21 20 20 20 18 18 18 18
30 32 31 29 27 27 28 29 30 29 26 25 26 25 25 26 25 24 24 24 25 26 27 28 28 27 27 27 26 26 25 24 23 23 22 20 19 18 18 17 17 16
26 30 33 32 29 27 27 28 28 29 29 27 26 25 25 26 25 24 24 23 24 24 25 25 27 27 27 25 26 26 25 24 22 21 20 17 16 16 16 16 14 13
25 28 32 33 29 26 28 29 30 31 31 29 27 26 26 26 25 25 25 24 23 23 22 23 24 26 26 25 24 24 24 23 21 19 17 16 14 13 13 12 11 10
25 27 29 29 27 27 29 31 32 32 31 29 27 26 26 26 27 27 25 24 25 22 21 20 21 24 26 24 20 19 20 20 17 15 15 15 13 12 10 9 10 10
25 27 27 28 28 28 30 31 31 30 29 28 27 25 25 26 27 26 25 24 24 21 19 17 17 21 24 20 16 17 18 16 14 14 14 12 11 11 10 10 10 9
24 26 27 28 28 28 29 30 30 30 27 26 25 23 24 24 25 25 23 21 20 19 18 17 18 20 19 15 14 16 16 14 13 12 11 10 11 12 12 12 11 10
22 23 26 29 28 27 27 28 29 29 27 24 22 22 22 22 22 22 20 19 19 19 19 18 19 19 16 14 15 16 15 14 13 12 12 14 15 14 13 12 12 10
17 20 25 28 27 25 25 24 25 26 26 22 20 19 18 17 18 19 17 17 18 19 19 20 20 19 17 16 16 15 14 14 14 14 16 17 16 15 14 13 11 9
13 18 22 23 24 24 24 24 24 24 23 20 18 16 14 14 16 17 16 17 18 19 21 23 22 20 19 18 17 15 15 16 17 17 18 17 16 16 15 13 10 8
14 19 20 19 20 21 22 23 23 21 19 17 15 14 13 14 14 14 16 18 19 19 22 25 23 21 20 19 18 17 17 18 19 19 19 17 17 17 15 12 10 7
17 20 18 16 17 19 20 21 21 19 17 15 13 12 13 13 12 12 15 18 19 20 22 24 24 23 22 21 19 19 19 20 20 20 18 17 17 16 14 11 8 6
19 20 17 15 16 18 20 21 21 19 17 14 13 13 13 12 11 13 16 18 19 21 23 25 25 24 23 22 21 20 20 21 20 18 17 17 16 14 12 10 8 6
Wind_Direction
250 250 251 251 251 251 252 251 249 249 249 249 247 244 240 237 234 235 239 242 244 246 248 252 254 251 246 240 236 236 236 234 231 226 222 225 235 244 249 250 250 251
247 249 249 248 248 250 251 251 249 249 249 249 249 246 242 239 236 236 241 246 247 250 253 253 251 247 246 242 237 237 237 235 229 222 221 226 234 241 248 251 255 258
245 246 247 245 245 246 249 249 249 249 249 249 248 245 243 241 239 238 241 246 248 252 257 256 249 244 243 241 238 238 239 237 231 223 223 229 235 240 247 255 264 269
245 244 244 243 242 244 247 249 249 248 248 248 246 243 242 242 242 241 243 247 250 254 258 257 249 241 238 236 236 238 239 238 232 226 227 233 239 243 251 263 271 273
245 244 243 242 240 241 244 246 247 247 246 247 246 242 240 241 242 243 244 247 250 253 254 252 248 241 234 232 233 236 238 236 232 230 232 237 243 249 258 267 271 273
246 245 244 243 240 240 242 243 244 246 245 246 247 243 240 240 241 242 243 243 244 247 246 246 247 242 234 232 233 235 235 234 232 233 236 240 245 253 260 264 267 269
247 246 245 242 239 240 243 245 244 244 245 245 246 245 241 239 239 240 240 238 238 240 241 241 243 240 235 232 232 233 234 233 231 231 234 239 246 253 258 260 263 264
248 245 242 240 239 244 248 249 248 246 244 244 245 245 243 240 239 240 239 237 236 235 232 233 236 235 234 235 234 234 233 231 230 230 233 240 247 252 255 257 260 263
243 241 243 241 244 250 250 247 249 248 245 246 248 247 245 242 239 238 238 237 237 234 227 227 231 232 234 237 236 234 234 233 232 231 232 239 247 253 256 257 260 264
241 244 248 244 246 252 248 242 244 247 245 246 250 250 247 244 241 238 236 235 236 234 226 224 227 230 233 235 233 233 235 236 234 230 232 238 242 249 256 258 260 265
243 245 241 240 247 255 252 245 243 245 245 245 249 250 248 244 240 238 235 234 234 232 227 224 226 230 233 232 230 230 233 237 238 235 237 241 243 248 255 259 262 267
244 240 235 241 249 252 251 247 243 244 243 242 246 250 249 245 242 239 237 235 234 233 231 229 231 234 233 229 229 229 229 234 238 240 243 245 246 250 256 262 266 269
244 239 240 246 247 245 245 243 242 241 238 237 242 248 250 249 246 243 240 238 236 236 235 234 235 235 232 229 230 230 228 230 235 239 244 247 250 254 258 262 266 269
249 246 247 248 248 248 245 240 238 238 235 234 237 242 248 252 251 248 246 243 241 240 239 238 238 236 232 230 232 231 228 229 234 240 245 248 254 259 261 262 264 266
257 256 252 247 248 248 244 239 238 239 240 238 234 233 238 244 249 250 249 247 243 241 240 239 239 239 234 231 233 232 229 229 236 244 248 249 252 256 258 258 261 264
258 259 253 248 248 250 245 242 242 243 242 238 234 233 234 238 242 244 245 245 243 240 239 240 240 239 237 236 236 233 230 229 234 243 249 251 250 247 247 251 256 260
252 254 250 245 247 252 251 248 247 243 235 231 232 233 234 237 239 238 238 240 241 241 240 241 240 236 235 236 234 230 229 229 230 237 245 250 246 238 237 240 242 239
254 254 250 244 246 254 255 252 247 239 230 228 230 231 231 234 237 238 240 241 243 242 239 240 238 232 230 230 228 227 231 232 230 230 233 236 235 231 227 223 219 219
256 255 251 248 251 256 257 252 241 231 226 227 230 231 232 234 236 241 245 245 245 242 238 238 237 230 225 220 218 227 236 236 228 222 221 223 220 214 208 205 205 208
250 249 246 246 250 254 253 245 231 222 222 227 229 230 233 236 240 244 245 242 240 238 236 235 229 222 217 210 210 223 232 230 223 216 208 197 192 191 191 194 197 199
246 244 242 242 245 247 242 230 220 219 225 229 228 227 231 238 244 245 242 236 234 234 232 225 215 210 213 216 217 220 222 219 214 202 187 179 179 181 183 186 189 190
243 240 240 241 241 238 230 220 218 224 227 226 226 227 230 234 239 239 233 228 229 228 222 213 205 205 212 219 219 217 214 210 202 189 181 178 177 177 179 181 181 179
228 223 227 231 231 228 226 225 225 226 225 221 220 221 219 219 224 226 221 218 220 217 211 207 204 203 209 212 212 212 210 203 193 185 181 179 176 176 177 175 172 169
214 208 210 216 220 222 224 226 224 221 219 215 209 207 210 213 212 211 211 212 212 209 207 205 202 201 205 206 206 207 205 197 189 184 181 180 176 174 172 170 169 167
209 205 207 209 214 216 215 218 220 217 215 211 200 195 206 211 205 198 201 204 204 201 198 197 196 197 200 201 201 201 198 192 188 185 182 179 176 172 168 167 167 159
209 207 209 208 209 209 209 214 217 214 211 207 193 186 192 195 189 188 192 193 193 191 186 185 188 191 195 196 197 195 192 189 188 186 183 178 173 170 169 168 167 162